Starlink 32955

operational
NORAD ID: 63117 Int'l Des: 2025-039 Owner: SPXS Country: US Constellation: starlink
LEOCIRCULAR

Über Starlink 32955

Beschreibung wird geladen...

Live-Position

3D-Globus wird geladen...

Nächste Überflüge

Höhenverlauf

Altitude vs Time

uPlot chart will show altitude changes over time

Zweizeiliger Elementsatz

1 63117U 25039P 25303.72620718 .00104480 00000-0 37415-2 0 9992
2 63117 42.9969 26.4808 0000327 309.7597 50.3226 15.27678852 38199
Epoch: 30. Okt. 2025 • Age: 11 hours

Aktueller Status

Höhe 482.3 km
Geschwindigkeit 7.63 km/s
Subsatellitenpunkt 25.09°N, 54.62°W
Startdatum 27. Feb. 2025
Alter 0.6 years
Typ internet

Technische Details

Klassifizierung Payload
Masse 730.00 kg
Trockenmasse 700.00 kg
Gesamtmasse 730.00 kg
Länge 0.30 m
Durchmesser 4.10 m
Spannweite 29.00 m
Form Box + pan
Hersteller SPXS
Bus-Typ Starlink V2M
Phasenstatus In Orbit
Besitzer/Staat SPXS/US

Große Konstellationen

Loading constellations...